Weather History for Kenai, AK

Change the Weather History Date:

Friday, June 28, 2013

  Actual Average Record
Temperature  
Mean Temperature 50 °F -  
Max Temperature 54 °F 60 °F 78 °F (1997)
Min Temperature 48 °F 43 °F -3 °F (1971)
Degree Days  
Heating Degree Days 14    
Moisture  
Dew Point 48 °F    
Average Humidity 91    
Maximum Humidity 100    
Minimum Humidity 82    
Precipitation  
Precipitation 0.00 in - - ()
Sea Level Pressure  
Sea Level Pressure 30.17 in    
Wind  
Wind Speed 10 mph (SSW)    
Max Wind Speed 15 mph    
Max Gust Speed 20 mph    
Visibility 10 miles    
Events Rain    
Averages and records for this station are not official NWS values.
T = Trace of Precipitation, MM = Missing Value Source: NWS Daily Summary

Daily Weather History Graph

Daily Weather History Graph

Search for Another Location

Airport:

Trip Planner

Search our weather history database for the weather conditions in past years. The results will help you decide how hot, cold, wet, or windy it might be!

Date:

Astronomy

Jun. 28, 2013 Rise Set
Actual Time 4:37 AM AKDT 11:38 PM AKDT
Civil Twilight 2:34 AM AKDT 1:38 AM AKDT
Nautical Twilight Sun does not rise Sun does not rise
Astronomical Twilight Sun does not rise Sun does not rise
Moon 12:49 AM AKDT (6/28) 12:58 PM AKDT (6/28)
Length of Visible Light 23h 04m
Length of Day
19h 00m
Waning Gibbous, 65% of the Moon is Illuminated
Jun 28
Waning Gibbous
Jun 29
Last Quarter
Jul 7
New
Jul 15
First Quarter
Jul 22
Full

Hourly Weather History & Observations

Time (AKDT) Temp. Dew Point Humidity Pressure Visibility Wind Dir Wind Speed Gust Speed Precip Events Conditions
12:53 AM 48.0 °F 48.0 °F 100% 30.12 in 10.0 mi SSW 6.9 mph - N/A   Partly Cloudy
1:20 AM 48.2 °F 48.2 °F 100% 30.11 in 10.0 mi SSW 10.4 mph - N/A   Mostly Cloudy
1:30 AM 48.2 °F 46.4 °F 93% 30.11 in 10.0 mi SSW 8.1 mph - N/A   Mostly Cloudy
1:53 AM 48.0 °F 48.0 °F 100% 30.13 in 10.0 mi SSW 9.2 mph - N/A   Partly Cloudy
2:53 AM 48.9 °F 48.0 °F 97% 30.14 in 10.0 mi SSW 10.4 mph - N/A   Overcast
3:53 AM 48.9 °F 48.0 °F 97% 30.14 in 10.0 mi SSW 10.4 mph - N/A   Overcast
4:22 AM 48.2 °F 48.2 °F 100% 30.14 in 10.0 mi SSW 12.7 mph - N/A   Overcast
4:53 AM 48.9 °F 48.0 °F 97% 30.14 in 10.0 mi SSW 10.4 mph - N/A   Overcast
5:53 AM 48.9 °F 48.0 °F 97% 30.15 in 10.0 mi SSW 11.5 mph - N/A   Overcast
6:39 AM 50.0 °F 48.2 °F 94% 30.15 in 10.0 mi SSW 13.8 mph - N/A   Overcast
6:53 AM 50.0 °F 48.0 °F 93% 30.16 in 10.0 mi SSW 13.8 mph - N/A   Overcast
7:53 AM 50.0 °F 48.0 °F 93% 30.17 in 10.0 mi SSW 15.0 mph 19.6 mph N/A   Overcast
8:53 AM 51.1 °F 48.0 °F 89% 30.18 in 10.0 mi South 12.7 mph - N/A   Overcast
8:58 AM 51.8 °F 48.2 °F 88% 30.18 in 10.0 mi SSW 11.5 mph - N/A   Overcast
9:53 AM 51.1 °F 48.0 °F 89% 30.19 in 10.0 mi SSW 10.4 mph - N/A   Overcast
10:07 AM 51.8 °F 48.2 °F 88% 30.18 in 10.0 mi SSW 11.5 mph - N/A   Overcast
10:53 AM 51.1 °F 48.0 °F 89% 30.19 in 10.0 mi SSW 11.5 mph - N/A   Overcast
11:53 AM 51.1 °F 48.9 °F 92% 30.19 in 10.0 mi SSW 11.5 mph - 0.00 in Rain Light Rain
12:53 PM 53.1 °F 50.0 °F 89% 30.20 in 10.0 mi SW 12.7 mph - 0.00 in   Overcast
1:53 PM 53.1 °F 48.9 °F 86% 30.21 in 10.0 mi SW 10.4 mph - N/A   Overcast
2:53 PM 53.1 °F 48.9 °F 86% 30.20 in 10.0 mi SSW 11.5 mph - N/A   Overcast
3:53 PM 53.1 °F 48.9 °F 86% 30.20 in 10.0 mi SSW 9.2 mph - N/A   Overcast
4:11 PM 53.6 °F 50.0 °F 88% 30.20 in 10.0 mi SSW 9.2 mph - N/A   Overcast
4:28 PM 53.6 °F 48.2 °F 82% 30.19 in 10.0 mi SW 9.2 mph - N/A   Overcast
4:53 PM 53.1 °F 48.9 °F 86% 30.20 in 10.0 mi SSW 9.2 mph - N/A   Overcast
5:24 PM 51.8 °F 48.2 °F 88% 30.19 in 10.0 mi SSW 6.9 mph - N/A   Overcast
5:53 PM 52.0 °F 48.9 °F 89% 30.20 in 10.0 mi SSW 8.1 mph - N/A   Overcast
6:12 PM 51.8 °F 48.2 °F 88% 30.19 in 10.0 mi SSW 9.2 mph - N/A   Overcast
6:53 PM 52.0 °F 48.9 °F 89% 30.19 in 10.0 mi SSW 9.2 mph - N/A   Overcast
7:53 PM 52.0 °F 48.9 °F 89% 30.18 in 10.0 mi SSW 9.2 mph - N/A   Overcast
8:53 PM 51.1 °F 48.9 °F 92% 30.17 in 10.0 mi SSW 9.2 mph - N/A   Overcast
9:39 PM 51.8 °F 48.2 °F 88% 30.16 in 10.0 mi SSW 8.1 mph - N/A   Overcast
9:53 PM 51.1 °F 48.9 °F 92% 30.17 in 10.0 mi SSW 8.1 mph - N/A   Overcast
10:27 PM 51.8 °F 48.2 °F 88% 30.15 in 10.0 mi SSW 6.9 mph - N/A   Overcast
10:53 PM 51.1 °F 48.9 °F 92% 30.17 in 10.0 mi SSW 8.1 mph - N/A   Overcast
11:53 PM 51.1 °F 48.9 °F 92% 30.16 in 10.0 mi SSW 5.8 mph - N/A   Overcast